| time (UTC) | temp C | wind direction | speed KPH | gust KPH | rain 1hr cm | rain 24hr cm | rain mn cm | humidity % | barometer mb |
| 20260503223539 | 18 | 0 | 0.0 | 8.0 | 0.00 | 0.00 | 0.00 | 36 | 1017.0 |
| 20260503223051 | 18 | 138 | 1.6 | 12.9 | 0.00 | 0.00 | 0.00 | 37 | 1017.0 |
| 20260503222538 | 18 | 0 | 0.0 | 12.9 | 0.00 | 0.00 | 0.00 | 36 | 1017.1 |
| 20260503222041 | 18 | 187 | 0.0 | 12.9 | 0.00 | 0.00 | 0.00 | 36 | 1017.2 |
| 20260503221555 | 18 | 150 | 0.0 | 12.9 | 0.00 | 0.00 | 0.00 | 34 | 1017.2 |
| 20260503221038 | 18 | 236 | 0.0 | 9.7 | 0.00 | 0.00 | 0.00 | 33 | 1017.3 |
| 20260503220538 | 19 | 172 | 0.0 | 8.0 | 0.00 | 0.00 | 0.00 | 34 | 1017.4 |
| 20260503220055 | 19 | 0 | 1.6 | 8.0 | 0.00 | 0.00 | 0.00 | 33 | 1017.5 |
| 20260503215538 | 19 | 0 | 0.0 | 6.4 | 0.00 | 0.00 | 0.00 | 34 | 1017.4 |
| 20260503215038 | 20 | 0 | 0.0 | 6.4 | 0.00 | 0.00 | 0.00 | 34 | 1017.5 |
| 20260503214559 | 20 | 0 | 0.0 | 6.4 | 0.00 | 0.00 | 0.00 | 32 | 1017.5 |
| 20260503214039 | 20 | 0 | 0.0 | 6.4 | 0.00 | 0.00 | 0.00 | 32 | 1017.6 |
| 20260503213539 | 20 | 161 | 0.0 | 8.0 | 0.00 | 0.00 | 0.00 | 32 | 1017.7 |
| 20260503213049 | 20 | 0 | 1.6 | 8.0 | 0.00 | 0.00 | 0.00 | 32 | 1017.7 |
| 20260503212538 | 20 | 0 | 0.0 | 4.8 | 0.00 | 0.00 | 0.00 | 31 | 1017.7 |
| 20260503212038 | 20 | 0 | 0.0 | 4.8 | 0.00 | 0.00 | 0.00 | 30 | 1017.7 |
| 20260503211553 | 20 | 0 | 0.0 | 6.4 | 0.00 | 0.00 | 0.00 | 31 | 1017.8 |
| 20260503211037 | 20 | 178 | 0.0 | 9.7 | 0.00 | 0.00 | 0.00 | 31 | 1017.9 |
| 20260503210538 | 20 | 360 | 0.0 | 11.3 | 0.00 | 0.00 | 0.00 | 31 | 1017.9 |
| 20260503210048 | 20 | 176 | 1.6 | 11.3 | 0.00 | 0.00 | 0.00 | 28 | 1017.9 |
| 20260503205538 | 20 | 165 | 0.0 | 9.7 | 0.00 | 0.00 | 0.00 | 28 | 1017.9 |
| 20260503205041 | 20 | 0 | 0.0 | 3.2 | 0.00 | 0.00 | 0.00 | 32 | 1018.0 |
| 20260503204557 | 20 | 0 | 0.0 | 14.5 | 0.00 | 0.00 | 0.00 | 32 | 1018.2 |
| 20260503204039 | 20 | 0 | 1.6 | 14.5 | 0.00 | 0.00 | 0.00 | 31 | 1018.1 |
| 20260503203538 | 20 | 0 | 0.0 | 14.5 | 0.00 | 0.00 | 0.00 | 31 | 1018.3 |
| 20260503203053 | 20 | 0 | 0.0 | 8.0 | 0.00 | 0.00 | 0.00 | 32 | 1018.2 |
| 20260503202539 | 20 | 0 | 1.6 | 8.0 | 0.00 | 0.00 | 0.00 | 32 | 1018.2 |
| 20260503202038 | 20 | 0 | 0.0 | 4.8 | 0.00 | 0.00 | 0.00 | 31 | 1018.4 |
| 20260503201550 | 20 | 0 | 0.0 | 4.8 | 0.00 | 0.00 | 0.00 | 33 | 1018.4 |
| 20260503201038 | 20 | 0 | 0.0 | 3.2 | 0.00 | 0.00 | 0.00 | 31 | 1018.6 |
| 20260503200542 | 20 | 0 | 0.0 | 3.2 | 0.00 | 0.00 | 0.00 | 34 | 1018.7 |
| 20260503200050 | 20 | 0 | 0.0 | 12.9 | 0.00 | 0.00 | 0.00 | 33 | 1018.9 |
| 20260503195542 | 20 | 288 | 1.6 | 12.9 | 0.00 | 0.00 | 0.00 | 31 | 1018.9 |
| 20260503195038 | 20 | 136 | 0.0 | 6.4 | 0.00 | 0.00 | 0.00 | 30 | 1018.9 |
| 20260503194554 | 20 | 0 | 0.0 | 4.8 | 0.00 | 0.00 | 0.00 | 32 | 1019.1 |
| 20260503194042 | 20 | 0 | 0.0 | 6.4 | 0.00 | 0.00 | 0.00 | 33 | 1019.1 |
| 20260503193539 | 20 | 0 | 0.0 | 6.4 | 0.00 | 0.00 | 0.00 | 31 | 1019.2 |
| 20260503193106 | 20 | 230 | 0.0 | 6.4 | 0.00 | 0.00 | 0.00 | 32 | 1019.2 |
| 20260503192538 | 20 | 0 | 0.0 | 9.7 | 0.00 | 0.00 | 0.00 | 32 | 1019.2 |
| 20260503192039 | 20 | 0 | 0.0 | 9.7 | 0.00 | 0.00 | 0.00 | 32 | 1019.4 |
| 20260503191552 | 20 | 0 | 1.6 | 9.7 | 0.00 | 0.00 | 0.00 | 31 | 1019.5 |
| 20260503191038 | 19 | 0 | 0.0 | 4.8 | 0.00 | 0.00 | 0.00 | 32 | 1019.5 |
| 20260503190539 | 19 | 275 | 0.0 | 14.5 | 0.00 | 0.00 | 0.00 | 32 | 1019.7 |
| 20260503190107 | 19 | 0 | 0.0 | 14.5 | 0.00 | 0.00 | 0.00 | 34 | 1019.7 |
| 20260503185542 | 19 | 187 | 0.0 | 8.0 | 0.00 | 0.00 | 0.00 | 33 | 1019.8 |
| 20260503185040 | 19 | 325 | 0.0 | 6.4 | 0.00 | 0.00 | 0.00 | 30 | 1019.8 |
| 20260503184552 | 18 | 0 | 0.0 | 4.8 | 0.00 | 0.00 | 0.00 | 33 | 1019.9 |
| 20260503184042 | 18 | 244 | 0.0 | 6.4 | 0.00 | 0.00 | 0.00 | 33 | 1019.9 |
| 20260503183542 | 18 | 355 | 0.0 | 6.4 | 0.00 | 0.00 | 0.00 | 33 | 1019.9 |
| 20260503183059 | 18 | 236 | 0.0 | 6.4 | 0.00 | 0.00 | 0.00 | 36 | 1019.9 |
| 20260503182541 | 18 | 0 | 0.0 | 4.8 | 0.00 | 0.00 | 0.00 | 35 | 1020.0 |
| 20260503182039 | 18 | 0 | 0.0 | 16.1 | 0.00 | 0.00 | 0.00 | 37 | 1020.2 |
| 20260503181552 | 17 | 0 | 0.0 | 16.1 | 0.00 | 0.00 | 0.00 | 36 | 1020.2 |
| 20260503181039 | 17 | 185 | 1.6 | 6.4 | 0.00 | 0.00 | 0.00 | 34 | 1020.2 |
| 20260503180539 | 17 | 0 | 1.6 | 6.4 | 0.00 | 0.00 | 0.00 | 32 | 1020.3 |
| 20260503180056 | 17 | 0 | 0.0 | 4.8 | 0.00 | 0.00 | 0.00 | 35 | 1020.4 |
| 20260503175540 | 17 | 196 | 0.0 | 6.4 | 0.00 | 0.00 | 0.00 | 32 | 1020.6 |
| 20260503175038 | 17 | 0 | 0.0 | 6.4 | 0.00 | 0.00 | 0.00 | 36 | 1020.6 |
| 20260503174754 | 17 | 352 | 0.0 | 16.1 | 0.00 | 0.00 | 0.00 | 33 | 1020.6 |
| 20260503174041 | 16 | 0 | 0.0 | 16.1 | 0.00 | 0.00 | 0.00 | 37 | 1020.6 |
| 20260503173541 | 16 | 321 | 4.8 | 16.1 | 0.00 | 0.00 | 0.00 | 34 | 1020.7 |
| 20260503173106 | 16 | 355 | 1.6 | 9.7 | 0.00 | 0.00 | 0.00 | 36 | 1020.6 |
| 20260503172540 | 16 | 167 | 1.6 | 12.9 | 0.00 | 0.00 | 0.00 | 35 | 1020.8 |
| 20260503172040 | 16 | 238 | 3.2 | 14.5 | 0.00 | 0.00 | 0.00 | 35 | 1020.7 |
| 20260503171552 | 16 | 352 | 3.2 | 14.5 | 0.00 | 0.00 | 0.00 | 34 | 1020.8 |
| 20260503171038 | 16 | 297 | 4.8 | 14.5 | 0.00 | 0.00 | 0.00 | 34 | 1020.9 |
| 20260503170537 | 17 | 350 | 0.0 | 4.8 | 0.00 | 0.00 | 0.00 | 37 | 1020.9 |
| 20260503150538 | 13 | 317 | 1.6 | 8.0 | 0.00 | 0.00 | 0.00 | 42 | 1022.0 |
| 20260503131038 | 10 | 38 | 0.0 | 3.2 | 0.00 | 0.00 | 0.00 | 58 | 1021.8 |
| 20260503130539 | 9 | 0 | 0.0 | 3.2 | 0.00 | 0.00 | 0.00 | 59 | 1021.8 |
| 20260503110539 | 5 | 321 | 4.8 | 9.7 | 0.00 | 0.00 | 0.00 | 76 | 1020.4 |
| 20260503081545 | 6 | 340 | 4.8 | 12.9 | 0.00 | 0.00 | 0.00 | 70 | 1019.3 |
| 20260503081038 | 6 | 352 | 4.8 | 12.9 | 0.00 | 0.00 | 0.00 | 70 | 1019.3 |
| 20260503080542 | 6 | 344 | 4.8 | 12.9 | 0.00 | 0.00 | 0.00 | 70 | 1019.2 |
| 20260503072539 | 6 | 327 | 1.6 | 8.0 | 0.00 | 0.00 | 0.00 | 70 | 1018.9 |
| 20260503072040 | 6 | 0 | 0.0 | 8.0 | 0.00 | 0.00 | 0.00 | 70 | 1018.7 |
| 20260503071550 | 6 | 342 | 3.2 | 11.3 | 0.00 | 0.00 | 0.00 | 70 | 1018.7 |
| 20260503071038 | 6 | 336 | 3.2 | 11.3 | 0.00 | 0.00 | 0.00 | 70 | 1018.6 |
| 20260503070538 | 6 | 14 | 1.6 | 6.4 | 0.00 | 0.00 | 0.00 | 70 | 1018.7 |
| 20260503055058 | 7 | 0 | 3.2 | 12.9 | 0.00 | 0.00 | 0.00 | 66 | 1018.3 |
| 20260503054549 | 7 | 344 | 4.8 | 12.9 | 0.00 | 0.00 | 0.00 | 66 | 1018.3 |
| 20260503054038 | 7 | 333 | 4.8 | 12.9 | 0.00 | 0.00 | 0.00 | 66 | 1018.3 |
| 20260503053538 | 8 | 342 | 4.8 | 12.9 | 0.00 | 0.00 | 0.00 | 66 | 1018.2 |
| 20260503053048 | 8 | 344 | 3.2 | 9.7 | 0.00 | 0.00 | 0.00 | 66 | 1018.2 |
| 20260503052539 | 8 | 331 | 1.6 | 11.3 | 0.00 | 0.00 | 0.00 | 65 | 1018.1 |
| 20260503052039 | 8 | 338 | 4.8 | 11.3 | 0.00 | 0.00 | 0.00 | 65 | 1018.2 |
| 20260503051556 | 8 | 347 | 3.2 | 14.5 | 0.00 | 0.00 | 0.00 | 66 | 1018.2 |
| 20260503051041 | 8 | 347 | 4.8 | 14.5 | 0.00 | 0.00 | 0.00 | 66 | 1018.2 |
| 20260503050538 | 8 | 5 | 3.2 | 9.7 | 0.00 | 0.00 | 0.00 | 67 | 1018.3 |
| 20260503050046 | 8 | 355 | 4.8 | 9.7 | 0.00 | 0.00 | 0.00 | 66 | 1018.3 |
| 20260503045539 | 8 | 307 | 3.2 | 8.0 | 0.00 | 0.00 | 0.00 | 67 | 1018.3 |
| 20260503045038 | 8 | 347 | 3.2 | 8.0 | 0.00 | 0.00 | 0.00 | 66 | 1018.3 |
| 20260503044544 | 8 | 301 | 0.0 | 6.4 | 0.00 | 0.00 | 0.00 | 66 | 1018.1 |
| 20260503044038 | 8 | 326 | 1.6 | 8.0 | 0.00 | 0.00 | 0.00 | 65 | 1018.1 |
| 20260503043540 | 8 | 0 | 4.8 | 8.0 | 0.00 | 0.00 | 0.00 | 65 | 1018.1 |
| 20260503043042 | 8 | 322 | 1.6 | 6.4 | 0.00 | 0.00 | 0.00 | 64 | 1018.2 |
| 20260503042539 | 8 | 360 | 1.6 | 8.0 | 0.00 | 0.00 | 0.00 | 64 | 1018.0 |
| 20260503042039 | 8 | 317 | 3.2 | 8.0 | 0.00 | 0.00 | 0.00 | 64 | 1018.1 |
| 20260503041541 | 8 | 0 | 1.6 | 6.4 | 0.00 | 0.00 | 0.00 | 63 | 1017.9 |
| 20260503041038 | 8 | 309 | 1.6 | 9.7 | 0.00 | 0.00 | 0.00 | 63 | 1017.9 |
| 20260503040540 | 8 | 0 | 1.6 | 9.7 | 0.00 | 0.00 | 0.00 | 62 | 1017.8 |
| 20260503040040 | 8 | 337 | 4.8 | 9.7 | 0.00 | 0.00 | 0.00 | 62 | 1017.9 |
| 20260503035538 | 8 | 355 | 4.8 | 14.5 | 0.00 | 0.00 | 0.00 | 61 | 1017.8 |
| 20260503035038 | 8 | 0 | 4.8 | 14.5 | 0.00 | 0.00 | 0.00 | 61 | 1017.8 |
| 20260503034549 | 9 | 338 | 4.8 | 14.5 | 0.00 | 0.00 | 0.00 | 61 | 1017.8 |
| 20260503034038 | 9 | 342 | 4.8 | 16.1 | 0.00 | 0.00 | 0.00 | 61 | 1017.8 |
| 20260503033538 | 9 | 24 | 6.4 | 16.1 | 0.00 | 0.00 | 0.00 | 61 | 1017.8 |
| 20260503033048 | 9 | 346 | 6.4 | 19.3 | 0.00 | 0.00 | 0.00 | 61 | 1017.8 |
| 20260503032539 | 9 | 313 | 6.4 | 19.3 | 0.00 | 0.00 | 0.00 | 60 | 1017.8 |
| 20260503032039 | 9 | 333 | 3.2 | 16.1 | 0.00 | 0.00 | 0.00 | 60 | 1017.9 |
| 20260503031544 | 9 | 337 | 6.4 | 17.7 | 0.00 | 0.00 | 0.00 | 60 | 1017.9 |
| 20260503031038 | 9 | 5 | 6.4 | 17.7 | 0.00 | 0.00 | 0.00 | 60 | 1017.9 |
| 20260503030538 | 9 | 349 | 4.8 | 14.5 | 0.00 | 0.00 | 0.00 | 60 | 1017.9 |
| 20260503030043 | 9 | 331 | 6.4 | 12.9 | 0.00 | 0.00 | 0.00 | 59 | 1017.8 |
| 20260503025538 | 9 | 319 | 6.4 | 14.5 | 0.00 | 0.00 | 0.00 | 59 | 1017.8 |
| 20260503025037 | 9 | 347 | 6.4 | 14.5 | 0.00 | 0.00 | 0.00 | 59 | 1017.7 |
| 20260503024557 | 9 | 321 | 1.6 | 16.1 | 0.00 | 0.00 | 0.00 | 59 | 1017.6 |
| 20260503024538 | 9 | 321 | 4.8 | 16.1 | 0.00 | 0.00 | 0.00 | 58 | 1017.6 |
| 20260503023539 | 9 | 24 | 3.2 | 12.9 | 0.00 | 0.00 | 0.00 | 58 | 1017.5 |
| 20260503023048 | 10 | 329 | 4.8 | 14.5 | 0.00 | 0.00 | 0.00 | 58 | 1017.6 |
| 20260503022540 | 10 | 334 | 4.8 | 14.5 | 0.00 | 0.00 | 0.00 | 58 | 1017.5 |
| 20260503022038 | 10 | 341 | 4.8 | 12.9 | 0.00 | 0.00 | 0.00 | 58 | 1017.5 |
| 20260503021551 | 10 | 31 | 3.2 | 14.5 | 0.00 | 0.00 | 0.00 | 58 | 1017.5 |
| 20260503021039 | 10 | 0 | 3.2 | 14.5 | 0.00 | 0.00 | 0.00 | 57 | 1017.4 |
| 20260503020540 | 10 | 347 | 3.2 | 12.9 | 0.00 | 0.00 | 0.00 | 57 | 1017.5 |
| 20260503020054 | 10 | 344 | 4.8 | 12.9 | 0.00 | 0.00 | 0.00 | 57 | 1017.4 |
| 20260503015539 | 10 | 341 | 3.2 | 16.1 | 0.00 | 0.00 | 0.00 | 57 | 1017.2 |
| 20260503015041 | 10 | 332 | 6.4 | 16.1 | 0.00 | 0.00 | 0.00 | 56 | 1017.2 |
| 20260503014618 | 10 | 317 | 4.8 | 12.9 | 0.00 | 0.00 | 0.00 | 56 | 1017.1 |
| 20260503014039 | 10 | 32 | 3.2 | 14.5 | 0.00 | 0.00 | 0.00 | 56 | 1017.0 |
| 20260503013538 | 10 | 23 | 4.8 | 14.5 | 0.00 | 0.00 | 0.00 | 55 | 1016.9 |
| 20260503013049 | 10 | 340 | 1.6 | 12.9 | 0.00 | 0.00 | 0.00 | 55 | 1016.8 |
| 20260503012541 | 10 | 360 | 3.2 | 12.9 | 0.00 | 0.00 | 0.00 | 55 | 1016.7 |
| 20260503012040 | 10 | 17 | 6.4 | 12.9 | 0.00 | 0.00 | 0.00 | 54 | 1016.7 |
| 20260503011558 | 10 | 350 | 3.2 | 12.9 | 0.00 | 0.00 | 0.00 | 54 | 1016.7 |
| 20260503011039 | 10 | 329 | 3.2 | 12.9 | 0.00 | 0.00 | 0.00 | 54 | 1016.7 |
| 20260503010538 | 10 | 317 | 4.8 | 14.5 | 0.00 | 0.00 | 0.00 | 54 | 1016.6 |
| 20260503010054 | 10 | 32 | 4.8 | 17.7 | 0.00 | 0.00 | 0.00 | 53 | 1016.5 |
| 20260503005538 | 10 | 331 | 6.4 | 17.7 | 0.00 | 0.00 | 0.00 | 53 | 1016.5 |
| 20260503005038 | 10 | 325 | 8.0 | 16.1 | 0.00 | 0.00 | 0.00 | 52 | 1016.3 |
| 20260503004559 | 11 | 360 | 6.4 | 14.5 | 0.00 | 0.00 | 0.00 | 52 | 1016.3 |
| 20260503004039 | 11 | 5 | 4.8 | 14.5 | 0.00 | 0.00 | 0.00 | 52 | 1016.3 |
| 20260503003538 | 11 | 323 | 4.8 | 14.5 | 0.00 | 0.00 | 0.00 | 51 | 1016.1 |
| 20260503003056 | 11 | 327 | 3.2 | 12.9 | 0.00 | 0.00 | 0.00 | 51 | 1016.1 |
| 20260503002538 | 11 | 333 | 3.2 | 12.9 | 0.00 | 0.00 | 0.00 | 51 | 1016.1 |
| 20260503002038 | 11 | 343 | 4.8 | 11.3 | 0.00 | 0.00 | 0.00 | 50 | 1016.1 |
| 20260503001544 | 11 | 26 | 3.2 | 12.9 | 0.00 | 0.00 | 0.00 | 50 | 1016.0 |
| 20260503001038 | 11 | 9 | 3.2 | 12.9 | 0.00 | 0.00 | 0.00 | 49 | 1015.8 |
| 20260503000537 | 11 | 339 | 3.2 | 16.1 | 0.00 | 0.00 | 0.00 | 48 | 1015.8 |
| 20260503000042 | 12 | 355 | 4.8 | 16.1 | 0.00 | 0.00 | 0.00 | 48 | 1015.7 |
| 20260502235538 | 12 | 28 | 6.4 | 14.5 | 0.00 | 0.00 | 0.00 | 48 | 1015.7 |
| 20260502235115 | 12 | 360 | 6.4 | 17.7 | 0.00 | 0.00 | 0.00 | 47 | 1015.6 |
| 20260502234547 | 12 | 333 | 6.4 | 17.7 | 0.00 | 0.00 | 0.00 | 47 | 1015.6 |
| 20260502234038 | 12 | 327 | 4.8 | 14.5 | 0.00 | 0.00 | 0.00 | 46 | 1015.6 |
| 20260502233538 | 12 | 346 | 4.8 | 19.3 | 0.00 | 0.00 | 0.00 | 45 | 1015.5 |
| 20260502233047 | 13 | 343 | 4.8 | 19.3 | 0.00 | 0.00 | 0.00 | 43 | 1015.3 |
| 20260502232539 | 13 | 346 | 8.0 | 17.7 | 0.00 | 0.00 | 0.00 | 43 | 1015.3 |
| 20260502232038 | 13 | 5 | 4.8 | 22.5 | 0.00 | 0.00 | 0.00 | 43 | 1015.3 |
| 20260502231545 | 13 | 315 | 8.0 | 22.5 | 0.00 | 0.00 | 0.00 | 43 | 1015.2 |
| 20260502231038 | 13 | 5 | 4.8 | 17.7 | 0.00 | 0.00 | 0.00 | 42 | 1015.2 |
| 20260502230538 | 13 | 336 | 6.4 | 29.0 | 0.00 | 0.00 | 0.00 | 42 | 1015.2 |
| 20260502230044 | 13 | 346 | 6.4 | 29.0 | 0.00 | 0.00 | 0.00 | 43 | 1015.2 |
| 20260502225537 | 13 | 323 | 4.8 | 16.1 | 0.00 | 0.00 | 0.00 | 43 | 1015.2 |
| 20260502225038 | 13 | 317 | 4.8 | 19.3 | 0.00 | 0.00 | 0.00 | 42 | 1015.3 |
| 20260502224603 | 13 | 344 | 8.0 | 19.3 | 0.00 | 0.00 | 0.00 | 41 | 1015.2 |
| 20260502224038 | 13 | 333 | 9.7 | 19.3 | 0.00 | 0.00 | 0.00 | 40 | 1015.3 |